TimeHST,TemperatureF,Dew PointF,Humidity,Sea Level PressureIn,VisibilityMPH,Wind Direction,Wind SpeedMPH,Gust SpeedMPH,PrecipitationIn,Events,Conditions,WindDirDegrees,DateUTC
12:53 AM,79.0,72.0,79,30.06,10.0,ENE,13.8,-,N/A,,Mostly Cloudy,60,2013-09-17 10:53:00
1:53 AM,79.0,72.0,79,30.05,10.0,ENE,13.8,-,N/A,,Overcast,60,2013-09-17 11:53:00
2:25 AM,73.4,68.0,83,30.04,4.0,NE,8.1,33.4,0.08,Rain,Rain,50,2013-09-17 12:25:00
2:43 AM,78.8,73.4,83,30.04,10.0,ENE,13.8,-,0.08,,Mostly Cloudy,60,2013-09-17 12:43:00
2:53 AM,78.1,71.1,79,30.02,10.0,ENE,15.0,-,0.08,,Mostly Cloudy,60,2013-09-17 12:53:00
3:53 AM,75.0,70.0,84,30.01,6.0,NE,16.1,-,0.02,Rain,Light Rain,40,2013-09-17 13:53:00
4:53 AM,75.9,71.1,85,30.01,10.0,NE,9.2,-,0.07,,Mostly Cloudy,50,2013-09-17 14:53:00
5:53 AM,78.1,70.0,76,30.02,10.0,ENE,18.4,-,0.03,,Scattered Clouds,60,2013-09-17 15:53:00
6:53 AM,78.1,71.1,79,30.04,10.0,ENE,16.1,-,N/A,,Partly Cloudy,60,2013-09-17 16:53:00
7:53 AM,80.1,70.0,71,30.05,10.0,ENE,17.3,-,0.00,,Partly Cloudy,60,2013-09-17 17:53:00
8:53 AM,82.0,70.0,67,30.06,10.0,NE,21.9,26.5,N/A,,Partly Cloudy,50,2013-09-17 18:53:00
9:53 AM,82.9,70.0,65,30.08,10.0,NE,17.3,-,N/A,,Scattered Clouds,50,2013-09-17 19:53:00
10:53 AM,82.9,72.0,69,30.07,10.0,ENE,16.1,-,N/A,,Partly Cloudy,60,2013-09-17 20:53:00
11:53 AM,84.0,71.1,65,30.06,10.0,NE,17.3,-,0.00,,Mostly Cloudy,40,2013-09-17 21:53:00
12:48 PM,80.6,71.6,74,30.05,10.0,ENE,16.1,-,0.00,Rain,Light Rain,70,2013-09-17 22:48:00
12:53 PM,82.0,73.0,74,30.04,10.0,East,17.3,-,0.00,,Mostly Cloudy,80,2013-09-17 22:53:00
1:53 PM,82.9,73.0,72,30.03,10.0,NE,17.3,-,N/A,,Scattered Clouds,40,2013-09-17 23:53:00
2:53 PM,84.0,72.0,67,30.02,10.0,NE,15.0,-,N/A,,Mostly Cloudy,50,2013-09-18 00:53:00
3:06 PM,82.4,71.6,70,30.02,10.0,ENE,15.0,-,N/A,,Mostly Cloudy,60,2013-09-18 01:06:00
3:53 PM,82.9,70.0,65,30.01,10.0,ENE,15.0,-,N/A,,Scattered Clouds,60,2013-09-18 01:53:00
4:53 PM,82.0,71.1,69,30.00,10.0,NE,16.1,-,N/A,,Partly Cloudy,50,2013-09-18 02:53:00
5:53 PM,81.0,69.1,67,30.00,10.0,ENE,13.8,-,N/A,,Partly Cloudy,60,2013-09-18 03:53:00
6:53 PM,79.0,71.1,77,30.01,10.0,NE,16.1,-,N/A,,Partly Cloudy,40,2013-09-18 04:53:00
7:44 PM,80.6,71.6,74,30.03,10.0,NE,16.1,-,N/A,,Mostly Cloudy,50,2013-09-18 05:44:00
7:53 PM,79.0,70.0,74,30.02,10.0,ENE,15.0,-,N/A,,Scattered Clouds,60,2013-09-18 05:53:00
8:53 PM,78.1,70.0,76,30.04,10.0,NE,17.3,-,0.01,,Mostly Cloudy,50,2013-09-18 06:53:00
9:53 PM,79.0,71.1,77,30.05,10.0,ENE,17.3,-,N/A,,Overcast,60,2013-09-18 07:53:00
10:53 PM,78.1,71.1,79,30.04,10.0,NE,13.8,-,N/A,,Scattered Clouds,50,2013-09-18 08:53:00
11:28 PM,78.8,69.8,74,30.04,10.0,NE,16.1,-,N/A,,Mostly Cloudy,50,2013-09-18 09:28:00
11:49 PM,78.8,69.8,74,30.04,10.0,ENE,16.1,-,N/A,,Mostly Cloudy,60,2013-09-18 09:49:00
11:53 PM,79.0,71.1,77,30.04,10.0,ENE,18.4,-,N/A,,Scattered Clouds,60,2013-09-18 09:53:00